Simultaneous Nadir Overpasses (SNOs) Predictions

Prediction of SNOs between GOES-16 and NOAA-19 Satellite Orbit:

Table of predicted SNOs for the next 14.0 days since TLE Epoch: 5/20/2023
Index Date Time (GOES-16) GOES-16 Lat,Lon NOAA-19 Lat,Lon Distance(km) Time Diff (sec)
1 05/21/2023 01:20:16 -0.00, -75.20 0.67, -72.40 320.14 80
2 05/23/2023 13:43:04 -0.01, -75.21 0.45, -77.18 224.25 80
3 05/24/2023 13:28:22 -0.01, -75.22 -0.21, -74.25 110.53 80
4 05/25/2023 13:16:22 -0.02, -75.23 -0.93, -71.33 445.46 80
5 05/27/2023 01:51:11 0.02, -75.24 -0.87, -79.03 433.26 80
6 05/28/2023 01:39:09 0.02, -75.25 -0.19, -76.11 97.66 80
7 05/29/2023 01:24:28 0.02, -75.27 0.49, -73.18 238.16 80
8 05/31/2023 13:47:17 -0.01, -75.31 0.60, -77.97 302.78 80
9 06/01/2023 13:32:35 -0.02, -75.33 -0.08, -75.04 33.34 80
10 06/02/2023 13:20:34 -0.02, -75.35 -0.76, -72.11 369.44 80
